Regional Weather Roundup
Issued by NWS

Home | Current Version | Previous Version | Text Only | Print | Product List | Glossary On
Versions: 1 2 3 4 5 6 7 8 9 10 11 12 13 14 15 16 17 18 19 20 21 22 23 24 25 26 27 28 29 30 31 32 33 34 35 36 37 38 39 40 41 42 43 44 45 46 47 48 49 50
000
ASUS43 KMPX 070810
RWRMN
WEATHER ROUNDUP FOR MINNESOTA
NATIONAL WEATHER SERVICE TWIN CITIES/CHANHASSEN MN
200 AM CST SUN FEB 07 2016


NOTE: "FAIR" INDICATES FEW OR NO CLOUDS BELOW 12,000 FEET WITH NO
SIGNIFICANT WEATHER AND/OR OBSTRUCTIONS TO VISIBILITY. N/A MEANS
CURRENT SKY AND/OR WEATHER CONDITIONS ARE NOT AVAILABLE.

MNZ060>063-068>070-070900-
   Twin Cities Metro

CITY           SKY/WX    TMP DP  RH WIND       PRES   REMARKS
TWIN CITIES    CLOUDY    33  27  78 S5        29.67F WCI  29
ST PAUL        CLOUDY    33  27  78 SE6       29.69F WCI  28
CRYSTAL        CLOUDY    34  28  79 SW3       29.67F
BLAINE         CLOUDY    36  30  80 SW6       29.67F
LAKEVILLE      CLOUDY    32  28  86 CALM      29.67F
EDEN PRAIRIE   MOCLDY    33  27  78 SW12      29.67F WCI  24
SOUTH ST PAUL  CLOUDY    34  28  78 S3        29.67F
LAKE ELMO      CLOUDY    32  30  93 S7        29.68F WCI  26
$$
MNZ001>005-007-008-013>017-022>024-027-028-070900-
   Northwest Minnesota

CITY           SKY/WX    TMP DP  RH WIND       PRES   REMARKS
BEMIDJI        CLOUDY    37  32  84 W10G16    29.44F
HALLOCK        CLOUDY    37  34  87 W16       29.41S
ROSEAU         CLOUDY    37  32  81 SW9       29.37F
WARROAD        PTCLDY    36  32  87 SW10      29.37F
THIEF RVR FALL CLOUDY    36  30  80 W17G23    29.44S
CROOKSTON      MIX PCPN  34  34 100 W21       29.47S WCI  22
FOSSTON        DRIZZLE   34  32  93 W15       29.46F WCI  24
DETROIT LAKES  LGT RAIN  36  34  93 W13G18    29.53S
MOORHEAD       CLOUDY    37  32  81 W25G33    29.56R
PARK RAPIDS    CLOUDY    36  31  82 SW13      29.48F
MAHNOMEN       RAIN      34  32  93 W16       29.48S WCI  23
$$
MNZ006-009>011-018-025>026-070900-
   North Central Minnesota

CITY           SKY/WX    TMP DP  RH WIND       PRES   REMARKS
BAUDETTE       CLOUDY    36  30  79 SW6       29.37F
FLAG ISLAND    CLOUDY    30  28  93 SE7       29.36R WCI  23
INTL FALLS     CLOUDY    33  31  92 S6        29.41F WCI  28
WASKISH        MOCLDY    37  32  81 SW12G17   29.41F
LONGVILLE      CLOUDY    34  32  93 S6        29.49F WCI  29
GRAND RAPIDS   CLOUDY    34  32  93 S12       29.50F WCI  25
CRANE LAKE     CLOUDY    30  30 100 S5        29.48F WCI  25
ORR            CLOUDY    30  28  93 S6        29.43F WCI  24
COOK           CLOUDY    34  30  86 S9        29.47F WCI  26
WALKER         PTSUNNY   34  31  90 SW9       29.46F WCI  26
$$
MNZ012-019>021-037-070900-
   Northeast Minnesota

CITY           SKY/WX    TMP DP  RH WIND       PRES   REMARKS
DULUTH         CLOUDY    32  29  88 SW17G24   29.55F WCI  21
ELY            LGT SNOW  30  30 100 S6        29.49F WCI  24
HIBBING        CLOUDY    32  31  96 S6        29.49F WCI  26
EVELETH        CLOUDY    32  32 100 SW10      29.52F WCI  24
DULUTH HARBOR  MOCLDY    34  30  86 SW14      29.59F WCI  24
TWO HARBORS    LGT SNOW  34  28  80 SW8       29.55F WCI  27
SILVER BAY     CLOUDY    34  30  86 S7        29.54F FOG     WCI  28
GRAND MARAIS     N/A     33  31  92 S14       29.60F WCI  23
G MARAIS ARPRT MIX PCPN  27  25  93 S8        29.55F WCI  18
$$
MNZ029>031-032-039>041-046>048-054>057-064-070900-
   West Central Minnesota

CITY           SKY/WX    TMP DP  RH WIND       PRES   REMARKS
FERGUS FALLS   CLOUDY    36  34  93 W16       29.61S
WHEATON        CLOUDY    41  34  75 W21G35    29.65F
MORRIS         CLOUDY    37  32  81 W14       29.64S
ALEXANDRIA     FLURRIES  35  31  85 W25G32    29.60F WCI  23
ELBOW LAKE     CLOUDY    35  32  88 NW18G25   29.62S FOG     WCI  25
WADENA         DRIZZLE   36  30  80 W14       29.53F
GLENWOOD       LGT RAIN  36  30  80 W22G29    29.63S
APPLETON       CLOUDY    37  30  75 W9        29.68S
BENSON         MIX PCPN  37  30  75 NW10      29.66S
ORTONVILLE     CLEAR     37  27  65 W12       29.68S
MADISON        PTCLDY    37  28  70 W16       29.70S
WILLMAR        FAIR      37  30  75 W21       29.67F
$$
MNZ033>034-036-042>043-049>051-058-059-070900-
   Central Minnesota

CITY           SKY/WX    TMP DP  RH WIND       PRES   REMARKS
ST CLOUD       CLOUDY    33  30  88 S8        29.61F WCI  26
SAUK CENTRE    FAIR      33  30  90 SW14      29.61F WCI  23
PAYNESVILLE    CLEAR     33  30  88 SW13      29.63F WCI  24
AITKIN         CLOUDY    36  28  75 S5        29.52F
PINE RIVER     CLEAR     34  30  86 S8        29.55F WCI  27
BRAINERD       PTCLDY    32  28  85 SW9       29.54F WCI  24
STAPLES        MOCLDY    36  30  80 SW9       29.53F
LONG PRAIRIE   MOCLDY    36  30  80 SW13G20   29.59F
LITTLE FALLS   PTCLDY    36  32  87 SW12G17   29.59R
LITCHFIELD     CLEAR     30  30 100 SW5       29.66F WCI  25
BUFFALO        PTCLDY    32  28  84 S5        29.66F WCI  27
MAPLE LAKE     PTCLDY    32  30  92 S6        29.64F WCI  27
$$
MNZ037-044-045-052-053-070900-
   East Central Minnesota

CITY           SKY/WX    TMP DP  RH WIND       PRES   REMARKS
PRINCETON      CLOUDY    36  30  80 SE5       29.61F
MORA           MOCLDY    34  30  86 S9        29.62F WCI  26
CAMBRIDGE      MIX PCPN  36  28  75 S7        29.62F
RUSH CITY      CLOUDY    33  29  85 S12       29.64F WCI  24
MOOSE LAKE     MOCLDY    32  30  93 S6        29.56F WCI  26
HINCKLEY       PTSUNNY   32  30  93 S9        29.61F WCI  24
CLOQUET        CLOUDY    34  28  80 S13G18    29.55F WCI  25
MCGREGOR       MOCLDY    32  30  93 S9        29.54F WCI  24
$$
MNZ071>073-080-081-089-090-097-098-070900-
   Southwest Minnesota

CITY           SKY/WX    TMP DP  RH WIND       PRES   REMARKS
MONTEVIDEO     PTCLDY    39  30  70 NW10G18   29.71R
GRANITE FALLS  CLEAR     38  31  77 W16       29.72S
CANBY          PTCLDY    41  32  69 NW17G25   29.73S
MARSHALL       CLEAR     36  27  69 W20       29.72S
REDWOOD FALLS  CLOUDY    39  29  67 W20G30    29.70R
OLIVIA         CLEAR     36  32  87 W16       29.68S
PIPESTONE      CLEAR     37  23  56 W16G23    29.76S
WINDOM         PTCLDY    36  28  75 W15       29.74R
WORTHINGTON    PTCLDY    34  25  69 W20       29.76F WCI  22
JACKSON        PTCLDY    36  27  69 W16G23    29.75S
TRACY          CLOUDY    37  29  72 W10G18    29.74R
SLAYTON        CLOUDY    34  29  82 W17G23    29.75S WCI  23
$$
MNZ065>067-074>077-082>085-091>093-070900-
   South Central Minnesota

CITY           SKY/WX    TMP DP  RH WIND       PRES   REMARKS
MANKATO        CLOUDY    34  27  75 SW13      29.71R WCI  25
NEW ULM        PTCLDY    34  28  80 W10       29.71R WCI  26
ST JAMES       PTCLDY    37  30  75 W18       29.73F
FAIRMONT       CLOUDY    36  27  69 W17       29.72F
GLENCOE        PTCLDY    32  30  93 SW6       29.67S WCI  26
FARIBAULT        N/A     32  27  80 S10       29.70F WCI  24
OWATONNA       CLOUDY    32  27  80 S13       29.70F WCI  22
WASECA         CLOUDY    32  28  86 SW14      29.73F WCI  22
ALBERT LEA     CLOUDY    34  28  80 SW14G20   29.72F WCI  24
$$
MNZ078>079-086>088-094>096-070900-
   Southeast Minnesota

CITY           SKY/WX    TMP DP  RH WIND       PRES   REMARKS
ROCHESTER      MOCLDY    32  27  81 SW20      29.73R WCI  20
RED WING       PTCLDY    36  27  69 SW7       29.71F
STANTON        CLOUDY    33  28  80 SW12      29.68F WCI  25
DODGE CENTER   CLOUDY    30  28  93 SW21      29.71F WCI  17
WINONA         CLOUDY    34  30  86 SW3       29.74S
AUSTIN         MOCLDY    34  28  80 SW15      29.72F WCI  24
PRESTON        CLOUDY    32  28  85 SW22G28   29.73F WCI  20
$$
ABBREVIATIONS USED IN REMARKS
   TC - TEMPERATURES IN CELSIUS
  WCI - WIND CHILL INDEX
   HX - HEAT INDEX
  VSB - VISIBILITY
$$




USA.gov is the U.S. government's official web portal to all federal, state and local government web resources and services.